Location: Casilda
(33.0440°S, 61.1680°W)
Time: 19:35:31
(UTC-03:00)

ISS - Pass Details

Date: 29 November 2023
Orbit: 415 x 417 km, 51.6° (Epoch: 04 December)

Event Time Altitude Azimuth Distance (km) Brightness Sun altitude
Exits shadow 02:33:15 15° 153° (SSE) 1,264 -0.5 -30.5°
Drops below altitude 10° 02:33:49 11° 149° (SSE) 1,477 -0.1 -30.4°
Sets 02:36:06 0° 140° (SE) 2,387 1.2 -30.2°
